Regional Weather Roundup
Issued by NWS

Home | Current Version | Previous Version | Graphics & Text | Print | Product List | Glossary On
Versions: 1 2 3 4 5 6 7 8 9 10 11 12 13 14 15 16 17 18 19 20 21 22 23 24 25 26 27 28 29 30 31 32 33 34 35 36 37 38 39 40 41 42 43 44 45 46 47 48 49 50
000
ASUS43 KOAX 241110
RWRNE

WEATHER ROUNDUP FOR NEBRASKA
NATIONAL WEATHER SERVICE OMAHA NE
600 AM CDT SUN MAY 24 2015

NOTES: SATELLITE DATA IS BEING USED TO AUGMENT CLOUD COVER ABOVE
       12000 FEET.
       "FAIR" INDICATES FEW OR NO CLOUDS BELOW 12,000 FEET WITH NO
       SIGNIFICANT WEATHER AND/OR OBSTRUCTIONS TO VISIBILITY.

  * THESE STATIONS DO NOT REPORT WEATHER SUCH AS RAIN...SNOW OR FOG.

NEZ001>004-019>022-054>056-241200-
NEBRASKA PANHANDLE

CITY           SKY/WX    TMP DP  RH WIND       PRES   REMARKS
SCOTTSBLUFF    CLOUDY    52  51  97 SE3       29.89F
ALLIANCE       RAIN      50  50 100 E8        29.88S
CHADRON        RAIN      53  51  93 E3        29.90F
KIMBALL          N/A    N/A N/A N/A MISG        N/A
SIDNEY         CLOUDY    50  49  96 W6        29.90S
$$

NEZ057>060-069>072-079>082-241200-
SOUTHWEST NEBRASKA

CITY           SKY/WX    TMP DP  RH WIND       PRES   REMARKS
NORTH PLATTE   CLOUDY    56  55  97 E3        29.90S
IMPERIAL       MOCLDY    54  53  97 E9        29.86F
LEXINGTON      DRIZZLE   59  58  97 CALM      29.90S
MCCOOK         CLOUDY    56  55  97 SE10      29.87F
OGALLALA       CLOUDY    55  54  98 SE7       29.89S
$$

NEZ005>010-023>029-035>040-094-241200-
NORTH CENTRAL NEBRASKA

CITY           SKY/WX    TMP DP  RH WIND       PRES   REMARKS
VALENTINE      CLOUDY    54  54 100 E7        29.93S FOG
AINSWORTH      DRZL/FOG  55  55 100 E7        29.92F VSB 1
BROKEN BOW     LGT RAIN  58  57  97 SE5       29.90S FOG
O`NEILL        FOG       57  57  99 E8        29.93F VSB 1/4
ORD            CLOUDY    57  56  96 E6        29.89F FOG
THEDFORD       DRIZZLE   56  55  99 E7        29.91F
$$

NEZ041-046>049-061>064-073>077-083>087-241200-
SOUTH CENTRAL NEBRASKA

CITY           SKY/WX    TMP DP  RH WIND       PRES   REMARKS
GRAND ISLAND   CLOUDY    58  57  97 E5        29.89F FOG
AURORA         CLOUDY    59  59 100 SE3       29.89S FOG
HASTINGS       FOG       59  59 100 S3        29.89S VSB 1
HEBRON         RAIN      60  58  94 CALM      29.88R
HOLDREGE       CLOUDY    57  56  95 SW3       29.90S FOG
KEARNEY *      CLOUDY    57  55  94 SE6       29.90R VSB 1/2
YORK           LGT RAIN  59  59 100 E6        29.88F
$$

NEZ011>018-030>034-042>045-241200-
NORTHEAST NEBRASKA

CITY           SKY/WX    TMP DP  RH WIND       PRES   REMARKS
NORFOLK        LGT RAIN N/A N/A N/A E7        29.89F
ALBION         HVY RAIN  58  56  94 E3        29.90F
BLAIR          CLOUDY    59  57  94 E12       29.90S
COLUMBUS *     CLOUDY    57  54  88 E9        29.91F
FREMONT        LGT RAIN  60  58  94 E7        29.89F
TEKAMAH        CLOUDY    61  59  93 E8        29.90S
WAYNE          CLOUDY    59  59  97 E9        29.93R FOG
$$

NEZ050>053-065>068-078-088>093-241200-
SOUTHEAST NEBRASKA

CITY           SKY/WX    TMP DP  RH WIND       PRES   REMARKS
LINCOLN        LGT RAIN  60  59  96 E7        29.87F FOG
OMAHA EPPLEY   LGT RAIN  61  59  93 E9        29.89F FOG
BEATRICE       DRIZZLE   60  59  98 NE5       29.85F
FALLS CITY     CLOUDY    62  60  93 SE9       29.84F
NEBRASKA CITY  CLOUDY    60  60 100 E8        29.86F FOG
PLATTSMOUTH    CLOUDY    60  58  95 E9        29.88F
$$

NEZ044-045-051>053-067-241200-
OMAHA AREA

CITY           SKY/WX    TMP DP  RH WIND       PRES   REMARKS
OMAHA EPPLEY   LGT RAIN  61  59  93 E9        29.89F FOG
BLAIR          CLOUDY    59  57  94 E12       29.90S
FREMONT        LGT RAIN  60  58  94 E7        29.89F
MILLARD        CLOUDY    61  59  94 E6        29.88F FOG
OFFUTT AFB     CLOUDY    60  59  96 E7        29.88S
PLATTSMOUTH    CLOUDY    60  58  95 E9        29.88F
WAHOO          LGT RAIN  60  58  95 E14       29.88S
$$


USA.gov is the U.S. government's official web portal to all federal, state and local government web resources and services.